Check out our new BloomSky Weather System.

Active alerts

Fort Bend, TX
  Details for Fort Bend, TX Special Weather Statement


Thunder radar  blitzortung!


Rain radar more information rain snow radar


Visit our other weather sites:

Template documentation
and downloads

And another site



Weather Underground History page Text

Daily Summary for December 4, 2017 Units:  Metric    English   Both
« Previous Day
Next Day »
Daily Weekly Monthly Yearly Custom
  High: Low: Average:
Temperature: -17.8 °C 19.2 °C 21.9 °C
Dew Point: -17.8 °C 18.7 °C 20.7 °C
Humidity: Humidity % 75 % 93 %
Wind Speed: 0 km/h 0 km/h 4.3 km/h
Wind Gust: 0 km/h - -
Wind:- - SSE
Pressure: 0 hPa 1011.4 hPa -
Precipitation: 13.21 mm    
Historical Graphs
 
 
Tabular Data for December 4, 2017
Time Temperature Dew Point Pressure Wind Wind Speed Wind Gust Humidity Rainfall Rate (Hourly)
-17.8 °C -17.8 °C 0 hPa Calm     Humidity % 0 mm
00:03 19.6 °C 19.1 °C 1015.8 hPa SE 8 km/h 12.9 km/h 97 % 0 mm
00:08 19.6 °C 19.1 °C 1015.5 hPa Calm   9.7 km/h 97 % 0 mm
00:13 19.6 °C 19.1 °C 1015.8 hPa ESE 3.2 km/h 9.7 km/h 97 % 0 mm
00:18 19.6 °C 19.1 °C 1015.8 hPa SSE 4.8 km/h 9.7 km/h 97 % 0 mm
00:23 19.6 °C 19.1 °C 1015.8 hPa SE 3.2 km/h 9.7 km/h 97 % 0 mm
00:28 19.6 °C 19.1 °C 1015.8 hPa SE 3.2 km/h 9.7 km/h 97 % 0 mm
00:33 19.6 °C 19.1 °C 1015.8 hPa SE 1.6 km/h 8 km/h 97 % 0 mm
00:38 19.6 °C 19.1 °C 1015.8 hPa Calm   8 km/h 97 % 0 mm
00:43 19.5 °C 19 °C 1015.8 hPa SE 1.6 km/h 8 km/h 97 % 0 mm
00:48 19.5 °C 19 °C 1015.5 hPa SSE 3.2 km/h 6.4 km/h 97 % 0 mm
00:53 19.5 °C 19 °C 1015.8 hPa Calm   8 km/h 97 % 0 mm
00:58 19.5 °C 19 °C 1015.8 hPa South 1.6 km/h 8 km/h 97 % 0 mm
01:03 19.5 °C 19 °C 1015.8 hPa South 4.8 km/h 8 km/h 97 % 0 mm
01:08 19.5 °C 19 °C 1015.8 hPa South 3.2 km/h 8 km/h 97 % 0 mm
01:13 19.5 °C 19 °C 1015.5 hPa ESE 3.2 km/h 8 km/h 97 % 0.25 mm
01:18 19.5 °C 19 °C 1015.5 hPa South 1.6 km/h 8 km/h 97 % 0.25 mm
01:23 19.4 °C 18.9 °C 1015.5 hPa SSW 4.8 km/h 6.4 km/h 97 % 0.25 mm
01:28 19.4 °C 18.9 °C 1015.5 hPa South 6.4 km/h 11.3 km/h 97 % 0.25 mm
01:33 19.4 °C 18.9 °C 1015.5 hPa South 4.8 km/h 11.3 km/h 97 % 0.25 mm
01:38 19.4 °C 18.9 °C 1015.5 hPa South 3.2 km/h 11.3 km/h 97 % 0.25 mm
01:43 19.4 °C 18.9 °C 1015.5 hPa SSE 3.2 km/h 11.3 km/h 97 % 0.25 mm
01:48 19.3 °C 18.8 °C 1015.5 hPa SW 3.2 km/h 8 km/h 97 % 0.25 mm
01:53 19.3 °C 18.8 °C 1015.5 hPa SSW 1.6 km/h 6.4 km/h 97 % 0.25 mm
01:58 19.3 °C 18.8 °C 1015.5 hPa SW 1.6 km/h 6.4 km/h 97 % 0.51 mm
02:03 19.3 °C 18.8 °C 1015.1 hPa Calm   3.2 km/h 97 % 0.51 mm
02:08 19.2 °C 18.7 °C 1015.5 hPa Calm   3.2 km/h 97 % 0.51 mm
02:13 19.2 °C 18.7 °C 1015.1 hPa SW 1.6 km/h 3.2 km/h 97 % 0.25 mm
02:18 19.2 °C 18.7 °C 1015.1 hPa Calm   3.2 km/h 97 % 0.25 mm
02:23 19.2 °C 18.7 °C 1014.8 hPa SE 1.6 km/h 3.2 km/h 97 % 0.25 mm
02:28 19.2 °C 18.7 °C 1014.8 hPa SE 3.2 km/h 3.2 km/h 97 % 0.25 mm
02:32 19.2 °C 18.7 °C 1014.8 hPa SSE 3.2 km/h 4.8 km/h 97 % 0.25 mm
02:37 19.2 °C 18.9 °C 1014.4 hPa SE 3.2 km/h 6.4 km/h 98 % 0.25 mm
02:42 19.3 °C 19 °C 1014.4 hPa SE 3.2 km/h 9.7 km/h 98 % 0.25 mm
02:47 19.3 °C 19 °C 1014.4 hPa SE 1.6 km/h 9.7 km/h 98 % 0.25 mm
02:52 19.3 °C 19 °C 1014.4 hPa SE 6.4 km/h 9.7 km/h 98 % 0.25 mm
02:57 19.4 °C 19.1 °C 1014.4 hPa SE 3.2 km/h 9.7 km/h 98 % 0 mm
03:02 19.4 °C 19.1 °C 1014.4 hPa SSE 4.8 km/h 9.7 km/h 98 % 0 mm
03:07 19.5 °C 19.2 °C 1014.4 hPa SE 6.4 km/h 9.7 km/h 98 % 0 mm
03:12 19.5 °C 19.2 °C 1014.1 hPa SE 3.2 km/h 9.7 km/h 98 % 0 mm
03:17 19.6 °C 19.3 °C 1014.1 hPa SE 3.2 km/h 9.7 km/h 98 % 0 mm
03:22 19.6 °C 19.3 °C 1014.1 hPa SSE 8 km/h 9.7 km/h 98 % 0 mm
03:27 19.7 °C 19.4 °C 1014.1 hPa SSE 3.2 km/h 9.7 km/h 98 % 0 mm
03:32 19.7 °C 19.4 °C 1014.1 hPa South 1.6 km/h 9.7 km/h 98 % 0 mm
03:38 19.7 °C 19.4 °C 1013.8 hPa SE 3.2 km/h 9.7 km/h 98 % 0 mm
03:43 19.8 °C 19.5 °C 1013.8 hPa ESE 6.4 km/h 11.3 km/h 98 % 0 mm
03:48 19.8 °C 19.5 °C 1013.8 hPa SE 3.2 km/h 11.3 km/h 98 % 0 mm
03:53 19.9 °C 19.6 °C 1013.8 hPa SE 4.8 km/h 11.3 km/h 98 % 0 mm
03:54 19.9 °C 19.6 °C 1013.8 hPa SE 4.8 km/h 11.3 km/h 98 % 0 mm
04:02 19.9 °C 19.6 °C 1013.8 hPa SSE 6.4 km/h 11.3 km/h 98 % 0 mm
04:07 19.9 °C 19.6 °C 1013.8 hPa SE 8 km/h 11.3 km/h 98 % 0 mm
04:12 20 °C 19.7 °C 1013.8 hPa South 6.4 km/h 11.3 km/h 98 % 0 mm
04:17 20 °C 19.7 °C 1013.4 hPa SE 6.4 km/h 11.3 km/h 98 % 0 mm
04:23 20 °C 19.7 °C 1013.4 hPa SSE 6.4 km/h 12.9 km/h 98 % 0 mm
04:28 20.1 °C 19.8 °C 1013.4 hPa SSE 3.2 km/h 12.9 km/h 98 % 0 mm
04:33 20 °C 19.7 °C 1013.4 hPa SSE 3.2 km/h 12.9 km/h 98 % 0 mm
04:38 20 °C 19.8 °C 1013.4 hPa SE 8 km/h 12.9 km/h 99 % 0 mm
04:43 20 °C 19.8 °C 1013.4 hPa SSE 9.7 km/h 9.7 km/h 99 % 0 mm
04:44 20 °C 19.8 °C 1013.4 hPa SSE 6.4 km/h 9.7 km/h 99 % 0 mm
04:52 20 °C 19.8 °C 1013.4 hPa SSE 3.2 km/h 12.9 km/h 99 % 0 mm
04:57 20 °C 19.8 °C 1013.4 hPa SSW 6.4 km/h 12.9 km/h 99 % 0 mm
05:01 20 °C 19.8 °C 1013.4 hPa SSE 4.8 km/h 8 km/h 99 % 0 mm
05:02 20 °C 19.8 °C 1013.4 hPa South 6.4 km/h 8 km/h 99 % 0 mm
05:07 20 °C 19.8 °C 1013.4 hPa SSE 4.8 km/h 11.3 km/h 99 % 0 mm
05:12 19.9 °C 19.7 °C 1013.4 hPa SSE 1.6 km/h 11.3 km/h 99 % 0 mm
05:18 19.9 °C 19.7 °C 1013.8 hPa SE 1.6 km/h 11.3 km/h 99 % 0 mm
05:23 19.9 °C 19.7 °C 1013.8 hPa SSE 3.2 km/h 8 km/h 99 % 0 mm
05:28 19.8 °C 19.6 °C 1013.8 hPa SSE 4.8 km/h 6.4 km/h 99 % 0 mm
05:33 19.8 °C 19.6 °C 1013.8 hPa SE 1.6 km/h 6.4 km/h 99 % 0 mm
05:38 19.8 °C 19.6 °C 1013.8 hPa South 4.8 km/h 6.4 km/h 99 % 0 mm
05:43 19.8 °C 19.6 °C 1013.8 hPa SSE 1.6 km/h 6.4 km/h 99 % 0 mm
05:48 19.8 °C 19.6 °C 1013.8 hPa SSE 1.6 km/h 6.4 km/h 99 % 0 mm
05:53 19.8 °C 19.6 °C 1013.8 hPa SE 1.6 km/h 6.4 km/h 99 % 0 mm
05:58 19.8 °C 19.6 °C 1013.8 hPa South 3.2 km/h 6.4 km/h 99 % 0 mm
06:00 19.8 °C 19.6 °C 1013.8 hPa SE 1.6 km/h 6.4 km/h 99 % 0 mm
06:12 19.9 °C 19.7 °C 1013.8 hPa SSW 1.6 km/h 4.8 km/h 99 % 0 mm
06:17 19.8 °C 19.6 °C 1014.1 hPa Calm   4.8 km/h 99 % 0 mm
06:22 19.8 °C 19.6 °C 1014.1 hPa SE 1.6 km/h 4.8 km/h 99 % 0 mm
06:23 19.8 °C 19.6 °C 1014.1 hPa Calm   4.8 km/h 99 % 0 mm
06:32 19.9 °C 19.7 °C 1014.1 hPa SSE 1.6 km/h 6.4 km/h 99 % 0 mm
06:37 19.9 °C 19.7 °C 1014.1 hPa ESE 1.6 km/h 6.4 km/h 99 % 0 mm
06:42 19.9 °C 19.7 °C 1014.4 hPa ESE 1.6 km/h 4.8 km/h 99 % 0 mm
06:47 19.9 °C 19.7 °C 1014.4 hPa SE 3.2 km/h 4.8 km/h 99 % 0 mm
06:52 19.9 °C 19.7 °C 1014.4 hPa SSE 1.6 km/h 4.8 km/h 99 % 0 mm
06:53 19.9 °C 19.7 °C 1014.4 hPa SSE 1.6 km/h 4.8 km/h 99 % 0 mm
07:02 19.9 °C 19.7 °C 1014.4 hPa Calm   6.4 km/h 99 % 0 mm
07:07 19.8 °C 19.6 °C 1014.4 hPa SE 1.6 km/h 6.4 km/h 99 % 0 mm
07:08 19.8 °C 19.6 °C 1014.4 hPa SE 1.6 km/h 6.4 km/h 99 % 0 mm
07:17 19.8 °C 19.6 °C 1014.4 hPa Calm   4.8 km/h 99 % 0 mm
07:22 19.8 °C 19.6 °C 1014.4 hPa SE 1.6 km/h 3.2 km/h 99 % 0 mm
07:27 19.8 °C 19.6 °C 1014.4 hPa Calm   3.2 km/h 99 % 0 mm
07:28 19.8 °C 19.6 °C 1014.4 hPa SE 1.6 km/h 3.2 km/h 99 % 0 mm
07:33 19.9 °C 19.7 °C 1014.4 hPa Calm   3.2 km/h 99 % 0 mm
07:38 20 °C 19.8 °C 1014.4 hPa SSE 1.6 km/h 3.2 km/h 99 % 0 mm
07:43 20.1 °C 19.9 °C 1014.8 hPa SE 1.6 km/h 3.2 km/h 99 % 0 mm
07:48 20.2 °C 20.2 °C 1014.4 hPa SSE 1.6 km/h 3.2 km/h 100 % 0 mm
07:53 20.3 °C 20.1 °C 1014.4 hPa ESE 1.6 km/h 4.8 km/h 99 % 0 mm
07:58 20.4 °C 20.4 °C 1014.4 hPa Calm   4.8 km/h 100 % 0 mm
08:03 20.7 °C 20.7 °C 1014.4 hPa SSE 1.6 km/h 4.8 km/h 100 % 0 mm
08:08 20.8 °C 20.8 °C 1014.8 hPa South 1.6 km/h 6.4 km/h 100 % 0 mm
08:13 20.9 °C 20.7 °C 1014.8 hPa SSE 3.2 km/h 6.4 km/h 99 % 0 mm
08:18 21.1 °C 21.1 °C 1014.8 hPa SSE 3.2 km/h 6.4 km/h 100 % 0 mm
08:23 21.3 °C 21.1 °C 1014.8 hPa ESE 3.2 km/h 6.4 km/h 99 % 0 mm
08:28 21.4 °C 21.2 °C 1014.8 hPa SSE 6.4 km/h 8 km/h 99 % 0 mm
08:34 21.6 °C 21.4 °C 1015.1 hPa SSW 4.8 km/h 9.7 km/h 99 % 0 mm
08:39 21.8 °C 21.6 °C 1015.1 hPa SE 4.8 km/h 9.7 km/h 99 % 0 mm
08:44 22 °C 21.7 °C 1014.8 hPa SSE 8 km/h 11.3 km/h 98 % 0 mm
08:49 22.1 °C 21.8 °C 1014.8 hPa ESE 3.2 km/h 12.9 km/h 98 % 0 mm
08:54 22.4 °C 22.1 °C 1015.1 hPa South 6.4 km/h 12.9 km/h 98 % 0 mm
08:59 22.7 °C 22.2 °C 1015.1 hPa SSE 8 km/h 12.9 km/h 97 % 0 mm
09:09 23.2 °C 22.4 °C 1015.1 hPa SSE 8 km/h 16.1 km/h 95 % 0.25 mm
09:14 23.4 °C 22.4 °C 1015.1 hPa SE 9.7 km/h 16.1 km/h 94 % 0.25 mm
10:36 25.4 °C 22.5 °C 1014.8 hPa SSE 14.5 km/h 24.1 km/h 84 % 0 mm
10:41 25.4 °C 22.1 °C 1014.8 hPa SSW 16.1 km/h 24.1 km/h 82 % 0 mm
10:46 25.4 °C 22.3 °C 1015.1 hPa SSW 12.9 km/h 20.9 km/h 83 % 0 mm
10:48 25.4 °C 22.1 °C 1014.8 hPa SSW 9.7 km/h 20.9 km/h 82 % 0 mm
10:52 25.4 °C 22.1 °C 1014.8 hPa South 4.8 km/h 20.9 km/h 82 % 0 mm
10:57 25.4 °C 22.1 °C 1014.8 hPa SSW 14.5 km/h 19.3 km/h 82 % 0 mm
11:02 25.4 °C 22.1 °C 1014.8 hPa South 4.8 km/h 19.3 km/h 82 % 0 mm
11:07 25.4 °C 22.1 °C 1014.8 hPa South 12.9 km/h 19.3 km/h 82 % 0 mm
11:12 25.3 °C 22 °C 1014.8 hPa SSE 11.3 km/h 19.3 km/h 82 % 0 mm
11:17 25.6 °C 22.1 °C 1014.4 hPa SSW 11.3 km/h 19.3 km/h 81 % 0 mm
11:22 25.8 °C 21.9 °C 1014.4 hPa SE 16.1 km/h 22.5 km/h 79 % 0 mm
11:27 26 °C 22.3 °C 1014.4 hPa SE 12.9 km/h 24.1 km/h 80 % 0 mm
11:32 26.3 °C 22.2 °C 1014.4 hPa South 12.9 km/h 24.1 km/h 78 % 0 mm
11:37 26.2 °C 21.8 °C 1014.1 hPa SSW 11.3 km/h 24.1 km/h 77 % 0 mm
11:42 26 °C 21.9 °C 1014.1 hPa South 11.3 km/h 24.1 km/h 78 % 0 mm
11:47 26 °C 22.3 °C 1013.8 hPa SSE 9.7 km/h 22.5 km/h 80 % 0 mm
11:52 26.3 °C 21.9 °C 1013.8 hPa SSW 14.5 km/h 22.5 km/h 77 % 0 mm
11:57 26.1 °C 21.7 °C 1013.4 hPa South 8 km/h 20.9 km/h 77 % 0 mm
12:02 25.9 °C 21.6 °C 1013.4 hPa SW 12.9 km/h 20.9 km/h 77 % 0 mm
12:07 26 °C 22.3 °C 1013.4 hPa South 11.3 km/h 20.9 km/h 80 % 0 mm
12:12 25.8 °C 22.1 °C 1013.4 hPa South 9.7 km/h 17.7 km/h 80 % 0 mm
12:17 25.8 °C 22.3 °C 1013.1 hPa SSW 4.8 km/h 17.7 km/h 81 % 0 mm
12:22 25.8 °C 21.9 °C 1013.1 hPa SSE 4.8 km/h 16.1 km/h 79 % 0 mm
12:27 25.9 °C 22 °C 1013.1 hPa SE 12.9 km/h 16.1 km/h 79 % 0 mm
12:32 26.1 °C 22 °C 1013.1 hPa South 6.4 km/h 16.1 km/h 78 % 0 mm
12:37 26.3 °C 22.2 °C 1013.1 hPa ESE 12.9 km/h 17.7 km/h 78 % 0 mm
12:42 26.7 °C 22.1 °C 1012.8 hPa SSE 17.7 km/h 19.3 km/h 76 % 0 mm
12:47 26.7 °C 22.1 °C 1012.8 hPa SSW 8 km/h 20.9 km/h 76 % 0 mm
12:52 26.8 °C 22 °C 1012.4 hPa South 8 km/h 20.9 km/h 75 % 0 mm
12:57 26.7 °C 21.9 °C 1012.4 hPa WSW 8 km/h 20.9 km/h 75 % 0 mm
13:02 26.6 °C 22 °C 1012.4 hPa SE 3.2 km/h 19.3 km/h 76 % 0 mm
13:12 26.2 °C 22.3 °C 1012.4 hPa SSE 8 km/h 19.3 km/h 79 % 0 mm
13:14 25.9 °C 22.2 °C 1012.4 hPa SSW 6.4 km/h 19.3 km/h 80 % 0 mm
13:18 25.7 °C 22.2 °C 1012.4 hPa SSE 9.7 km/h 16.1 km/h 81 % 0 mm
13:32 24.7 °C 22.4 °C 1012.1 hPa SSW 12.9 km/h 14.5 km/h 87 % 2.54 mm
13:34 24.6 °C 22.3 °C 1012.1 hPa SE 11.3 km/h 14.5 km/h 87 % 2.54 mm
13:37 24.6 °C 22.1 °C 1012.1 hPa SSW 19.3 km/h 24.1 km/h 86 % 2.79 mm
13:42 24.4 °C 22.3 °C 1012.1 hPa Calm   24.1 km/h 88 % 3.05 mm
13:49 24.4 °C 22.5 °C 1012.1 hPa South 6.4 km/h 24.1 km/h 89 % 3.3 mm
13:52 24.5 °C 22.7 °C 1012.1 hPa South 4.8 km/h 20.9 km/h 90 % 3.3 mm
13:54 24.6 °C 22.8 °C 1012.1 hPa SSW 8 km/h 20.9 km/h 90 % 3.3 mm
13:59 25.1 °C 23.3 °C 1012.1 hPa SSW 6.4 km/h 11.3 km/h 90 % 3.3 mm
14:04 25.6 °C 23.5 °C 1011.7 hPa SSW 3.2 km/h 11.3 km/h 88 % 3.3 mm
14:13 26 °C 23.1 °C 1011.7 hPa SE 3.2 km/h 11.3 km/h 84 % 3.3 mm
14:19 26.2 °C 22.5 °C 1012.1 hPa SE 9.7 km/h 12.9 km/h 80 % 3.3 mm
14:24 26.4 °C 22.7 °C 1012.1 hPa South 11.3 km/h 20.9 km/h 80 % 1.02 mm
14:30 26.7 °C 22.8 °C 1011.7 hPa SW 14.5 km/h 20.9 km/h 79 % 1.02 mm
14:35 26.7 °C 22.3 °C 1012.1 hPa SE 11.3 km/h 20.9 km/h 77 % 0.76 mm
14:40 26.8 °C 22.4 °C 1012.1 hPa SSW 8 km/h 20.9 km/h 77 % 0.51 mm
14:45 26.7 °C 21.9 °C 1011.7 hPa SSW 6.4 km/h 20.9 km/h 75 % 0.25 mm
14:50 26.4 °C 21.8 °C 1011.7 hPa SE 4.8 km/h 20.9 km/h 76 % 0 mm
14:55 26.4 °C 21.6 °C 1011.7 hPa SSE 8 km/h 20.9 km/h 75 % 0 mm
15:00 26.3 °C 21.7 °C 1011.7 hPa SW 9.7 km/h 16.1 km/h 76 % 0 mm
15:05 26.2 °C 21.8 °C 1011.7 hPa SSW 11.3 km/h 16.1 km/h 77 % 0 mm
15:10 26.2 °C 21.8 °C 1011.7 hPa SSW 12.9 km/h 17.7 km/h 77 % 0 mm
15:15 26.2 °C 21.6 °C 1011.7 hPa SE 11.3 km/h 19.3 km/h 76 % 0 mm
15:20 26.2 °C 21.6 °C 1011.7 hPa SE 4.8 km/h 19.3 km/h 76 % 0 mm
15:25 25.9 °C 21.8 °C 1012.1 hPa SSW 8 km/h 27.4 km/h 78 % 2.03 mm
15:30 24.9 °C 21.8 °C 1011.7 hPa SSW 3.2 km/h 27.4 km/h 83 % 3.3 mm
15:35 24.4 °C 21.9 °C 1011.7 hPa SSW 6.4 km/h 27.4 km/h 86 % 3.3 mm
15:40 24.3 °C 22 °C 1011.7 hPa South 4.8 km/h 11.3 km/h 87 % 3.3 mm
15:45 24.3 °C 22.2 °C 1011.7 hPa South 1.6 km/h 11.3 km/h 88 % 3.3 mm
15:50 24.2 °C 22.3 °C 1011.7 hPa SSW 1.6 km/h 9.7 km/h 89 % 3.3 mm
15:55 24.3 °C 22.4 °C 1011.7 hPa South 1.6 km/h 6.4 km/h 89 % 3.3 mm
16:00 24.3 °C 22.4 °C 1011.7 hPa SSW 3.2 km/h 6.4 km/h 89 % 3.3 mm
16:05 24.2 °C 22.3 °C 1011.4 hPa SSW 4.8 km/h 9.7 km/h 89 % 3.3 mm
16:10 24.2 °C 22.3 °C 1011.4 hPa SSW 3.2 km/h 9.7 km/h 89 % 3.3 mm
16:15 24.2 °C 22.3 °C 1011.4 hPa Calm   9.7 km/h 89 % 3.3 mm
16:20 24.2 °C 22.3 °C 1011.4 hPa SE 4.8 km/h 8 km/h 89 % 3.3 mm
16:25 24.2 °C 22.3 °C 1011.4 hPa SW 3.2 km/h 8 km/h 89 % 1.27 mm
16:30 24.1 °C 22.2 °C 1011.7 hPa South 1.6 km/h 6.4 km/h 89 % 0 mm
16:35 24.1 °C 22.2 °C 1012.1 hPa SW 9.7 km/h 9.7 km/h 89 % 0 mm
16:40 23.4 °C 21.1 °C 1012.4 hPa South 12.9 km/h 29 km/h 87 % 2.54 mm
16:45 22.3 °C 20.2 °C 1012.1 hPa Calm   29 km/h 88 % 5.59 mm
16:50 21.8 °C 20.1 °C 1011.7 hPa SE 3.2 km/h 29 km/h 90 % 5.84 mm
16:55 21.6 °C 20.2 °C 1012.1 hPa SSE 3.2 km/h 20.9 km/h 92 % 5.84 mm
17:00 21.6 °C 20.2 °C 1012.1 hPa ENE 1.6 km/h 6.4 km/h 92 % 5.84 mm
17:05 21.4 °C 20.2 °C 1012.1 hPa Calm   6.4 km/h 93 % 5.84 mm
17:10 21.3 °C 20.3 °C 1012.1 hPa Calm   4.8 km/h 94 % 5.84 mm
17:15 21.1 °C 20.1 °C 1012.4 hPa Calm   4.8 km/h 94 % 5.84 mm
17:20 21.1 °C 20.3 °C 1012.1 hPa Calm   3.2 km/h 95 % 5.84 mm
17:25 21.2 °C 20.5 °C 1012.1 hPa Calm   3.2 km/h 96 % 5.84 mm
17:28 21.2 °C 20.5 °C 1012.1 hPa East 1.6 km/h 3.2 km/h 96 % 5.84 mm
17:32 21.3 °C 20.6 °C 1012.1 hPa ESE 3.2 km/h 3.2 km/h 96 % 5.84 mm
17:37 21.6 °C 21.1 °C 1011.7 hPa SE 3.2 km/h 8 km/h 97 % 5.84 mm
17:42 21.8 °C 21.3 °C 1012.1 hPa East 4.8 km/h 8 km/h 97 % 3.3 mm
17:47 22.1 °C 21.8 °C 1012.1 hPa SSE 6.4 km/h 8 km/h 98 % 0.25 mm
17:52 22.2 °C 21.9 °C 1012.1 hPa SSE 4.8 km/h 9.7 km/h 98 % 0 mm
17:57 22.2 °C 21.9 °C 1012.1 hPa SSE 1.6 km/h 11.3 km/h 98 % 0 mm
18:02 22.2 °C 21.9 °C 1012.1 hPa East 1.6 km/h 12.9 km/h 98 % 0 mm
18:07 22.2 °C 21.9 °C 1012.4 hPa SE 8 km/h 12.9 km/h 98 % 0 mm
18:12 22.2 °C 21.9 °C 1012.4 hPa SE 6.4 km/h 12.9 km/h 98 % 0 mm
18:17 22.2 °C 21.9 °C 1012.1 hPa SSE 4.8 km/h 9.7 km/h 98 % 0 mm
18:22 22.3 °C 22 °C 1012.4 hPa ESE 1.6 km/h 9.7 km/h 98 % 0 mm
18:28 22.3 °C 22 °C 1012.4 hPa SE 1.6 km/h 8 km/h 98 % 0 mm
18:33 22.3 °C 22 °C 1012.4 hPa SE 4.8 km/h 8 km/h 98 % 0 mm
18:35 22.3 °C 22 °C 1012.4 hPa SE 3.2 km/h 9.7 km/h 98 % 0 mm
18:40 22.3 °C 22 °C 1012.4 hPa South 8 km/h 11.3 km/h 98 % 0 mm
18:45 22.4 °C 22.1 °C 1012.4 hPa SE 3.2 km/h 11.3 km/h 98 % 0 mm
18:50 22.3 °C 21.8 °C 1012.8 hPa SE 1.6 km/h 11.3 km/h 97 % 0 mm
18:55 22.4 °C 21.9 °C 1012.8 hPa SE 1.6 km/h 9.7 km/h 97 % 0 mm
19:00 22.3 °C 21.8 °C 1012.8 hPa ESE 4.8 km/h 8 km/h 97 % 0 mm
19:05 22.4 °C 21.9 °C 1012.8 hPa ESE 4.8 km/h 6.4 km/h 97 % 0 mm
19:10 22.3 °C 21.8 °C 1013.1 hPa SSE 1.6 km/h 9.7 km/h 97 % 0 mm
19:15 22.3 °C 21.8 °C 1013.1 hPa SSE 3.2 km/h 9.7 km/h 97 % 0 mm
19:20 22.3 °C 21.8 °C 1013.1 hPa SE 1.6 km/h 9.7 km/h 97 % 0 mm
19:25 22.2 °C 21.7 °C 1013.1 hPa ESE 3.2 km/h 8 km/h 97 % 0 mm
19:30 22.2 °C 21.7 °C 1013.1 hPa SE 1.6 km/h 9.7 km/h 97 % 0 mm
19:35 22.1 °C 21.6 °C 1013.1 hPa ESE 8 km/h 9.7 km/h 97 % 0 mm
19:40 22.1 °C 21.6 °C 1013.1 hPa SSE 4.8 km/h 11.3 km/h 97 % 0 mm
19:45 22 °C 21.5 °C 1013.1 hPa SSE 3.2 km/h 11.3 km/h 97 % 0 mm
19:50 21.9 °C 21.4 °C 1013.4 hPa SSE 3.2 km/h 11.3 km/h 97 % 0 mm
19:55 21.9 °C 21.4 °C 1013.4 hPa SE 1.6 km/h 9.7 km/h 97 % 0 mm
20:01 21.9 °C 21.4 °C 1013.4 hPa SSW 3.2 km/h 9.7 km/h 97 % 0 mm
20:06 21.8 °C 21.3 °C 1013.4 hPa ESE 1.6 km/h 9.7 km/h 97 % 0 mm
20:11 21.8 °C 21.3 °C 1013.4 hPa SE 3.2 km/h 6.4 km/h 97 % 0 mm
20:16 21.8 °C 21.3 °C 1013.4 hPa ESE 1.6 km/h 6.4 km/h 97 % 0 mm
20:21 21.7 °C 21.2 °C 1013.8 hPa SSE 3.2 km/h 4.8 km/h 97 % 0 mm
20:26 21.7 °C 21.2 °C 1013.4 hPa SE 3.2 km/h 4.8 km/h 97 % 0 mm
20:31 21.7 °C 21.2 °C 1013.4 hPa ESE 3.2 km/h 4.8 km/h 97 % 0 mm
20:36 21.7 °C 21.2 °C 1013.8 hPa SE 1.6 km/h 4.8 km/h 97 % 0 mm
20:41 21.7 °C 21.2 °C 1013.8 hPa SSW 1.6 km/h 4.8 km/h 97 % 0 mm
20:46 21.7 °C 21.2 °C 1013.8 hPa SE 1.6 km/h 4.8 km/h 97 % 0 mm
20:51 21.7 °C 21.2 °C 1013.8 hPa SE 3.2 km/h 4.8 km/h 97 % 0 mm
20:56 21.7 °C 21.4 °C 1013.8 hPa Calm   4.8 km/h 98 % 0 mm
21:01 21.7 °C 21.4 °C 1013.8 hPa Calm   3.2 km/h 98 % 0 mm
21:06 21.7 °C 21.4 °C 1014.1 hPa Calm   3.2 km/h 98 % 0 mm
21:12 21.7 °C 21.4 °C 1014.1 hPa Calm   1.6 km/h 98 % 0 mm
21:17 21.7 °C 21.4 °C 1014.1 hPa Calm   4.8 km/h 98 % 0 mm
21:20 21.7 °C 21.4 °C 1014.1 hPa SE 1.6 km/h 4.8 km/h 98 % 0 mm
21:25 21.7 °C 21.4 °C 1014.1 hPa Calm   4.8 km/h 98 % 0 mm
21:30 21.7 °C 21.4 °C 1014.1 hPa Calm   4.8 km/h 98 % 0 mm
21:35 21.7 °C 21.4 °C 1014.1 hPa SSW 1.6 km/h 3.2 km/h 98 % 0 mm
21:41 21.8 °C 21.5 °C 1014.1 hPa Calm   3.2 km/h 98 % 0 mm
21:46 21.8 °C 21.5 °C 1014.1 hPa Calm   3.2 km/h 98 % 0 mm
21:51 21.8 °C 21.5 °C 1014.1 hPa Calm   3.2 km/h 98 % 0 mm
21:56 21.8 °C 21.5 °C 1014.1 hPa Calm   3.2 km/h 98 % 0 mm
22:01 21.7 °C 21.4 °C 1014.1 hPa Calm   3.2 km/h 98 % 0 mm
22:06 21.7 °C 21.4 °C 1014.4 hPa Calm   3.2 km/h 98 % 0 mm
22:07 21.7 °C 21.4 °C 1014.4 hPa Calm   3.2 km/h 98 % 0 mm
22:12 21.8 °C 21.5 °C 1014.4 hPa South 4.8 km/h 4.8 km/h 98 % 0 mm
22:17 21.8 °C 21.5 °C 1014.4 hPa South 6.4 km/h 9.7 km/h 98 % 0 mm
22:22 21.9 °C 21.6 °C 1014.4 hPa South 1.6 km/h 9.7 km/h 98 % 0 mm
22:27 21.9 °C 21.6 °C 1014.4 hPa SE 1.6 km/h 9.7 km/h 98 % 0 mm
22:32 21.9 °C 21.6 °C 1014.4 hPa SE 1.6 km/h 6.4 km/h 98 % 0 mm
22:37 21.8 °C 21.5 °C 1014.4 hPa Calm   4.8 km/h 98 % 0 mm
22:42 21.8 °C 21.5 °C 1014.4 hPa Calm   1.6 km/h 98 % 0 mm
22:47 21.8 °C 21.5 °C 1014.4 hPa SE 1.6 km/h 3.2 km/h 98 % 0 mm
22:52 21.8 °C 21.5 °C 1014.4 hPa SE 1.6 km/h 3.2 km/h 98 % 0 mm
22:57 21.8 °C 21.5 °C 1014.4 hPa Calm   3.2 km/h 98 % 0 mm
23:02 21.7 °C 21.4 °C 1014.4 hPa Calm   3.2 km/h 98 % 0 mm
23:07 21.7 °C 21.4 °C 1014.4 hPa Calm   3.2 km/h 98 % 0 mm
23:12 21.6 °C 21.3 °C 1014.4 hPa SE 1.6 km/h 3.2 km/h 98 % 0 mm
23:17 21.6 °C 21.3 °C 1014.4 hPa Calm   3.2 km/h 98 % 0 mm
23:22 21.5 °C 21.2 °C 1014.4 hPa Calm   3.2 km/h 98 % 0 mm
23:27 21.4 °C 21.1 °C 1014.4 hPa Calm   3.2 km/h 98 % 0 mm
23:32 21.4 °C 21.1 °C 1014.4 hPa Calm   1.6 km/h 98 % 0 mm
23:37 21.4 °C 21.1 °C 1014.4 hPa SSW 1.6 km/h 1.6 km/h 98 % 0 mm
23:43 21.4 °C 21.2 °C 1014.4 hPa Calm   3.2 km/h 99 % 0 mm
23:48 21.4 °C 21.2 °C 1014.4 hPa SSW 4.8 km/h 4.8 km/h 99 % 0 mm
23:53 21.5 °C 21.3 °C 1014.4 hPa South 3.2 km/h 8 km/h 99 % 0 mm
23:58 21.6 °C 21.4 °C 1014.4 hPa SE 1.6 km/h 8 km/h 99 % 0 mm
Spring, Texas: Villages of Bridgestone
Compliments of Weather Underground - 2.75 mb

Script developed by  Jim McMurry - jmcmurry@mwt.net Adapted for the template by  Wim van der Kuil - Leuven-Template.eu

You find our weather info also at:

UK Metoffice

WeatherCloud

Weather Underground

Mid-South Weather Network

AWEKAS

Citizen Weather Observer Program (CWOP)

HAMweather, WeatherForYou, PWS Weather

Equipment we use:

Weather-station
Davis Vantage Vue

Weather-program
Meteohub

Weather-server
Debian 7.9 x86 (Guest)

Provider
DreamHost

Davis Vantage Vue

Meteohub

Debian 7.9 x86 (Guest)

DreamHost